Location: Unspecified
(0.0000°N, 0.0000°E)
Time: 14:44:39
(UTC+02:00)

SJ-6B - Visible Passes

Search period start: 23 July 2017 00:00
Search period end: 02 August 2017 00:00
Orbit: 511 x 584 km, 97.7° (Epoch: 22 July)

Date Brightness Start Highest point End Pass type
(mag) Time Alt. Az. Time Alt. Az. Time Alt. Az.
23 Jul 3.7 21:46:16 30° SSW 21:47:36 43° WSW 21:51:08 10° NNW visible
24 Jul 3.3 21:41:12 33° SSW 21:42:35 53° WSW 21:46:14 10° NNW visible
25 Jul 2.9 21:36:09 34° S 21:37:35 66° WSW 21:41:17 10° NNW visible
26 Jul 2.6 21:31:05 35° S 21:32:35 81° WSW 21:36:19 10° NNW visible
27 Jul 2.5 21:26:02 34° SSE 21:27:34 82° E 21:31:19 10° N visible
28 Jul 2.6 21:20:58 31° SSE 21:22:34 66° ENE 21:26:17 10° N visible
29 Jul 2.7 21:15:54 29° SE 21:17:33 53° E 21:21:13 10° N visible
30 Jul 3.0 21:10:50 25° SE 21:12:33 43° ENE 21:16:08 10° N visible
31 Jul 3.3 21:05:46 22° SE 21:07:33 36° ENE 21:11:01 10° N visible
01 Aug 3.6 21:00:42 20° SE 21:02:32 29° ENE 21:05:51 10° NNE visible
